Fairchild Air Force Base, WA

8:37 PM PST on February 13, 2016 (GMT -0800)
Fairchild Air Force Base

Weather History for KSKA - April, 2014

Change the Weather History Date:

Monday, April 28, 2014

  Actual Average (KGEG) Record (KGEG)
Temperature  
Mean Temperature 42 °F 50 °F  
Max Temperature 54 °F 61 °F 88 °F (1926)
Min Temperature 30 °F 39 °F 24 °F (1907)
Degree Days  
Heating Degree Days 23 15  
Month to date heating degree days 511  
Since 1 July heating degree days 6107  
Cooling Degree Days 0 0  
Month to date cooling degree days 0  
Year to date cooling degree days 0  
Moisture  
Dew Point 30 °F    
Average Humidity 71    
Maximum Humidity 95    
Minimum Humidity 33    
Precipitation  
Precipitation 0.00 in 0.04 in 0.53 in (1937)
Month to date precipitation 1.21  
Year to date precipitation 5.94  
Snow  
Snow 0.00 in 0.00 in 3.50 in (1990)
Month to date snowfall 1.0  
Since 1 July snowfall 44.8  
Snow Depth -    
Sea Level Pressure  
Sea Level Pressure 30.20 in    
Wind  
Wind Speed 8 mph (SSW)    
Max Wind Speed 13 mph    
Max Gust Speed -    
Visibility 10 miles    
Events      
T = Trace of Precipitation, MM = Missing Value Source: NWS Daily Summary

Daily Weather History Graph

Daily Weather History Graph

Search for Another Location

Airport or City:

Trip Planner

Search our weather history database for the weather conditions in past years. The results will help you decide how hot, cold, wet, or windy it might be!

Date:

Astronomy

Apr. 28, 2014 Rise Set
Actual Time 5:38 AM PDT 7:58 PM PDT
Civil Twilight 5:04 AM PDT 8:32 PM PDT
Nautical Twilight 4:21 AM PDT 9:15 PM PDT
Astronomical Twilight 3:33 AM PDT 10:04 PM PDT
Moon 5:23 AM PDT (4/28) 7:40 PM PDT (4/28)
Length of Visible Light 15h 28m
Length of Day
14h 20m
Waning Crescent, 0% of the Moon is Illuminated
Apr 28
Waning Crescent
Apr 28
New
May 6
First Quarter
May 14
Full
May 21
Last Quarter

Hourly Weather History & Observations

Time (PDT) Temp. Windchill Dew Point Humidity Pressure Visibility Wind Dir Wind Speed Gust Speed Precip Events Conditions
12:58 AM 33.8 °F 24.8 °F 27.9 °F 79% 30.01 in 10.0 mi SSW 12.7 mph - 0.00 in   Clear
1:58 AM 32.0 °F 25.6 °F 28.4 °F 87% 30.02 in 10.0 mi South 6.9 mph - N/A   Clear
2:58 AM 32.2 °F 23.8 °F 28.6 °F 87% 30.04 in 10.0 mi South 10.4 mph - 0.00 in   Clear
3:06 AM 32.0 °F 23.6 °F 28.4 °F 87% 30.01 in 10.0 mi South 10.4 mph - N/A   Partly Cloudy
3:13 AM 32.0 °F 22.5 °F 28.4 °F 87% 30.01 in 10.0 mi SSW 12.7 mph - N/A   Partly Cloudy
3:27 AM 32.0 °F 23.6 °F 28.4 °F 87% 30.02 in 10.0 mi SSW 10.4 mph - N/A   Mostly Cloudy
3:29 AM 32.0 °F 23.6 °F 28.4 °F 87% 30.02 in 10.0 mi SSW 10.4 mph - N/A   Mostly Cloudy
3:41 AM 32.0 °F 24.8 °F 28.4 °F 87% 30.02 in 10.0 mi SSW 8.1 mph - N/A   Overcast
3:47 AM 32.0 °F 25.6 °F 28.4 °F 87% 30.03 in 10.0 mi South 6.9 mph - N/A   Overcast
3:49 AM 32.0 °F 26.4 °F 28.4 °F 87% 30.03 in 10.0 mi South 5.8 mph - N/A   Overcast
3:51 AM 32.0 °F 25.6 °F 28.4 °F 87% 30.03 in 10.0 mi SSW 6.9 mph - N/A   Overcast
3:58 AM 32.4 °F 24.6 °F 29.3 °F 88% 30.08 in 10.0 mi South 9.2 mph - 0.00 in   Overcast
4:44 AM 32.0 °F 24.2 °F 30.2 °F 93% 30.06 in 10.0 mi South 9.2 mph - N/A   Overcast
4:58 AM 31.6 °F 23.7 °F 28.9 °F 90% 30.11 in 10.0 mi South 9.2 mph - 0.00 in   Mostly Cloudy
4:59 AM 32.0 °F 24.2 °F 28.4 °F 87% 30.07 in 10.0 mi South 9.2 mph - N/A   Mostly Cloudy
5:58 AM 30.0 °F 25.2 °F 28.6 °F 94% 30.15 in 10.0 mi South 4.6 mph - 0.00 in   Clear
6:58 AM 31.5 °F 25.8 °F 30.2 °F 95% 30.19 in 10.0 mi South 5.8 mph - N/A   Partly Cloudy
7:40 AM 35.6 °F 28.6 °F 32.0 °F 87% 30.16 in 10.0 mi SSW 9.2 mph - N/A   Partly Cloudy
7:44 AM 35.6 °F 29.2 °F 32.0 °F 87% 30.16 in 10.0 mi SSW 8.1 mph - N/A   Scattered Clouds
7:58 AM 36.1 °F 29.9 °F 31.1 °F 82% 30.21 in 10.0 mi SSW 8.1 mph - 0.00 in   Mostly Cloudy
8:25 AM 37.4 °F 32.8 °F 32.0 °F 81% 30.18 in 10.0 mi WSW 5.8 mph - N/A   Scattered Clouds
8:29 AM 37.4 °F 34.9 °F 32.0 °F 81% 30.18 in 10.0 mi Variable 3.5 mph - N/A   Scattered Clouds
8:58 AM 39.0 °F - 30.7 °F 72% 30.25 in 10.0 mi Variable 1.2 mph - 0.00 in   Clear
9:24 AM 41.0 °F 37.1 °F 32.0 °F 70% 30.21 in 10.0 mi SW 5.8 mph - N/A   Partly Cloudy
9:29 AM 41.0 °F 38.0 °F 32.0 °F 70% 30.21 in 10.0 mi West 4.6 mph - N/A   Partly Cloudy
9:58 AM 43.0 °F 39.5 °F 32.7 °F 67% 30.26 in 10.0 mi SSW 5.8 mph - 0.00 in   Clear
10:58 AM 45.0 °F 41.2 °F 33.3 °F 64% 30.29 in 10.0 mi SSE 6.9 mph - N/A   Overcast
11:13 AM 46.4 °F 45.2 °F 33.8 °F 62% 30.25 in 10.0 mi SW 3.5 mph - N/A   Overcast
11:23 AM 44.6 °F - 32.0 °F 61% 30.25 in 10.0 mi Variable 2.3 mph - N/A   Overcast
11:33 AM 44.6 °F 43.1 °F 32.0 °F 61% 30.25 in 10.0 mi Variable 3.5 mph - N/A   Overcast
11:38 AM 44.6 °F 42.2 °F 32.0 °F 61% 30.25 in 10.0 mi SSE 4.6 mph - N/A   Mostly Cloudy
11:58 AM 45.7 °F - 32.5 °F 60% 30.30 in 10.0 mi SSE 1.2 mph - N/A   Mostly Cloudy
12:58 PM 48.2 °F - 32.5 °F 55% 30.31 in 10.0 mi Calm Calm - N/A   Mostly Cloudy
1:58 PM 48.2 °F - 29.8 °F 49% 30.32 in 10.0 mi Variable 2.3 mph - N/A   Scattered Clouds
2:58 PM 53.2 °F - 28.9 °F 39% 30.33 in 10.0 mi SW 9.2 mph - N/A   Scattered Clouds
3:58 PM 54.5 °F - 29.5 °F 38% 30.34 in 10.0 mi West 9.2 mph - N/A   Overcast
4:58 PM 53.1 °F - 28.0 °F 38% 30.35 in 10.0 mi SW 5.8 mph - N/A   Mostly Cloudy
5:58 PM 53.1 °F - 24.8 °F 33% 30.37 in 10.0 mi West 12.7 mph - N/A   Partly Cloudy
6:58 PM 52.3 °F - 24.3 °F 34% 30.38 in 10.0 mi SW 8.1 mph - N/A   Clear
7:58 PM 47.1 °F - 28.4 °F 48% 30.40 in 10.0 mi SSW 5.8 mph - N/A   Clear
8:58 PM 45.1 °F 42.0 °F 26.6 °F 48% 30.42 in 10.0 mi SSW 5.8 mph - N/A   Clear
9:58 PM 43.9 °F - 27.5 °F 53% 30.45 in 10.0 mi South 2.3 mph - N/A   Clear
10:58 PM 42.1 °F - 27.7 °F 57% 30.46 in 10.0 mi South 2.3 mph - N/A   Clear
11:58 PM 42.3 °F - 26.8 °F 54% 30.48 in 10.0 mi Calm Calm - N/A   Clear